Location: Newark
(45.1000°N, 8.5833°E)
Time: 01:40:55
(UTC+00:00)

N. Korean satellite - Visible Passes

Search period start: 20 September 2019 00:00
Search period end: 30 September 2019 00:00
Orbit: 455 x 509 km, 97.2° (Epoch: 18 September)

Date Brightness Start Highest point End Pass type
(mag) Time Alt. Az. Time Alt. Az. Time Alt. Az.
21 Sep 9.7 04:35:26 10° NE 04:37:50 18° E 04:40:13 10° SE visible
25 Sep 9.9 04:28:14 10° NE 04:30:14 15° E 04:32:14 10° SE visible
26 Sep 10.7 17:48:45 10° WSW 17:49:32 11° W 17:50:18 10° WNW visible
28 Sep 9.4 04:45:11 10° NE 04:48:03 24° E 04:50:54 10° SSE visible
29 Sep 10.2 04:21:10 10° ENE 04:22:37 12° E 04:24:03 10° ESE visible
